Vorticity
12 8 1 24 2 1 1 5 2 6 6 7 9 9 11 13 3 3 4 2 -3 3 13 6 7 12 8 6 5 5 6 6
5 15 12 23 4 9 1 6 3 4 7 6 7 10 8 13 7 2 5 2 2 4 9 5 6 7 10 8 6 6 4 6
10 12 -0 4 8 14 -1 8 8 3 6 6 7 9 10 14 13 2 3 4 3 2 6 14 6 7 8 11 9 8 5 5
1 -1 -2 4 6 -0 4 5 10 5 5 9 5 7 10 12 13 5 2 5 0 2 7 5 7 7 4 6 11 7 8 7
1 7 5 -5 -4 -3 0 9 7 6 3 4 6 7 9 11 13 14 2 5 3 5 5 4 13 4 10 5 3 9 8 6
26 1 1 -2 0 6 10 9 9 6 4 3 9 6 7 13 7 14 4 3 2 1 6 6 3 12 4 10 2 2 5 5
10 23 27 16 13 14 13 10 7 7 3 3 4 8 6 12 9 12 8 2 1 1 5 5 5 6 7 5 7 6 4 6
2 1 3 7 15 16 13 9 5 6 4 3 4 8 8 10 12 7 14 3 3 3 6 0 7 2 10 5 4 6 4 3
8 4 6 3 8 9 10 8 6 7 6 4 3 7 10 9 14 11 14 5 1 2 2 0 10 4 4 11 5 3 4 5
3 1 3 5 6 8 6 5 8 4 6 4 2 6 7 10 11 16 7 7 2 2 4 -1 12 6 6 1 10 5 2 3
4 -1 -3 -1 8 8 6 5 10 3 6 6 2 6 5 8 6 15 8 11 1 2 0 2 3 4 1 6 2 10 6 3
7 10 8 1 3 1 9 6 9 3 4 7 4 5 4 6 7 14 10 30 3 -1 0 2 -1 8 7 2 7 4 7 7
8 7 8 -1 3 7 11 11 4 7 2 4 5 4 4 7 6 9 0 36 11 9 -3 2 -3 14 6 -4 10 7 5 6
15 8 10 10 6 9 18 -16 21 10 4 6 5 6 3 3 4 7 3 33 17 11 3 3 8 5 7 3 7 7 7 9
2 8 5 15 -1 7 24 11 -0 27 6 3 3 6 8 8 3 5 2 15 16 2 0 -0 11 2 -5 12 -3 3 9 -5
89 16 3 19 1 4 13 98 -0 6 -2 6 5 7 -3 5 11 5 11 9 19 12 2 -1 5 1 9 -4 3 5 -6 14
33 66 35 3 11 2 22 -37 100 -2 9 -0 4 4 5 5 7 6 8 8 8 21 -2 12 1 4 7 7 -5 -3 1 -1
-9 16 73 13 -16 8 8 -25 54 -6 9 10 8 15 19 1 7 1 10 5 18 -3 19 -5 0 7 1 3 3 -1 4 -4
5 22 -7 90 4 20 14 12 8 25 7 1 23 -8 69 -9 0 27 9 1 16 5 -4 24 3 2 6 9 -0 -2 0 1
24 20 18 1 65 -11 -2 -7 -18 11 8 -11 7 28 3 -19 40 11 11 0 9 19 -11 19 2 7 1 -4 -4 6 13 11
Height
5862 5858 5856 5857 5857 5858 5857 5857 5858 5858 5858 5858 5857 5857 5857 5859 5860 5861 5863 5863 5863 5864 5863 5864 5864 5865 5866 5867 5869 5870 5872 5874
5850 5852 5849 5851 5852 5852 5851 5852 5853 5853 5854 5855 5853 5853 5854 5855 5857 5859 5862 5863 5863 5863 5863 5863 5864 5865 5866 5867 5869 5871 5872 5874
5839 5842 5842 5843 5845 5847 5846 5847 5848 5849 5850 5850 5850 5850 5851 5852 5854 5856 5858 5861 5862 5863 5862 5862 5863 5865 5866 5867 5869 5871 5873 5874
5827 5831 5833 5834 5836 5839 5840 5840 5842 5843 5845 5846 5846 5847 5847 5849 5851 5853 5856 5858 5861 5862 5862 5861 5862 5864 5865 5867 5868 5869 5872 5875
5816 5821 5823 5825 5827 5830 5832 5834 5835 5837 5838 5841 5841 5842 5842 5845 5846 5850 5853 5856 5859 5860 5860 5860 5861 5863 5865 5867 5868 5869 5872 5873
5806 5808 5810 5814 5816 5819 5822 5824 5828 5829 5831 5833 5836 5837 5838 5841 5842 5846 5850 5853 5855 5857 5858 5858 5859 5861 5863 5865 5867 5869 5872 5873
5788 5793 5798 5801 5804 5807 5809 5813 5818 5820 5822 5824 5828 5831 5832 5835 5836 5840 5845 5847 5850 5853 5855 5856 5857 5858 5861 5863 5866 5866 5870 5873
5775 5777 5781 5788 5790 5795 5799 5801 5807 5809 5812 5815 5817 5824 5825 5829 5830 5833 5839 5842 5845 5848 5851 5852 5853 5856 5858 5860 5863 5864 5867 5871
5763 5762 5766 5771 5780 5783 5785 5789 5793 5797 5803 5806 5807 5813 5817 5822 5823 5826 5832 5836 5838 5841 5845 5848 5850 5852 5854 5857 5861 5862 5865 5868
5746 5750 5754 5758 5762 5771 5773 5776 5781 5785 5790 5795 5798 5801 5808 5813 5815 5819 5824 5828 5832 5835 5839 5844 5847 5848 5851 5854 5857 5861 5862 5864
5725 5729 5740 5743 5748 5755 5760 5765 5767 5771 5776 5783 5787 5791 5798 5804 5808 5811 5815 5819 5824 5828 5833 5839 5842 5844 5847 5849 5852 5857 5858 5861
5709 5715 5721 5728 5730 5736 5744 5747 5751 5756 5762 5770 5776 5779 5786 5794 5798 5802 5806 5809 5815 5820 5824 5831 5836 5839 5840 5844 5847 5851 5855 5856
5689 5695 5696 5709 5721 5722 5731 5734 5736 5742 5747 5758 5764 5769 5775 5782 5788 5791 5796 5799 5806 5813 5817 5823 5828 5833 5834 5837 5842 5846 5850 5854
5671 5673 5678 5689 5696 5702 5710 5720 5717 5729 5733 5745 5751 5757 5765 5770 5776 5781 5786 5791 5796 5801 5808 5815 5819 5824 5831 5832 5835 5841 5845 5849
5649 5656 5657 5666 5675 5686 5696 5704 5711 5706 5716 5728 5737 5744 5751 5756 5764 5770 5777 5782 5787 5793 5801 5807 5813 5819 5824 5828 5830 5837 5840 5843
5622 5632 5639 5642 5656 5666 5680 5667 5687 5698 5706 5717 5726 5730 5738 5743 5752 5758 5765 5772 5777 5783 5792 5800 5803 5808 5816 5820 5825 5829 5832 5837
5602 5607 5619 5624 5631 5648 5661 5667 5655 5683 5692 5702 5712 5716 5721 5727 5738 5748 5753 5761 5766 5774 5781 5788 5794 5799 5806 5812 5817 5822 5826 5830
5585 5591 5595 5603 5612 5632 5639 5652 5654 5671 5679 5686 5692 5693 5690 5708 5723 5736 5741 5751 5756 5762 5771 5779 5786 5791 5797 5802 5806 5812 5820 5824
5567 5573 5579 5580 5584 5606 5625 5637 5649 5655 5663 5671 5674 5676 5649 5689 5706 5720 5730 5738 5745 5751 5757 5766 5775 5782 5788 5793 5798 5806 5812 5815
5551 5556 5562 5569 5575 5586 5607 5620 5632 5642 5652 5660 5664 5664 5667 5684 5695 5709 5715 5726 5734 5741 5746 5753 5764 5771 5776 5782 5787 5793 5800 5804